2024/02/16 00:00:00,42.1,-0.0
2024/02/16 00:10:00,42.1, 0.1
2024/02/16 00:20:00,42.6,-0.3
2024/02/16 00:30:00,43.2,-0.5
2024/02/16 00:40:00,43.7,-0.5
2024/02/16 00:50:00,44.0,-0.6
2024/02/16 01:00:00,44.4,-0.5
2024/02/16 01:10:00,44.7,-0.7
2024/02/16 01:20:00,44.7,-0.7
2024/02/16 01:30:00,44.7,-0.6
2024/02/16 01:40:00,45.0,-0.7
2024/02/16 01:50:00,45.0,-0.6
2024/02/16 02:00:00,45.0,-0.2
2024/02/16 02:10:00,45.0,-0.8
2024/02/16 02:20:00,45.4,-1.1
2024/02/16 02:30:00,45.7,-1.3
2024/02/16 02:40:00,45.8,-1.0
2024/02/16 02:50:00,45.7,-0.6
2024/02/16 03:00:00,45.9,-0.8
2024/02/16 03:10:00,46.0,-0.8
2024/02/16 03:20:00,46.3,-0.6
2024/02/16 03:30:00,46.5,-0.7
2024/02/16 03:40:00,46.7,-0.9
2024/02/16 03:50:00,46.9,-0.9
2024/02/16 04:00:00,46.9,-1.0
2024/02/16 04:10:00,47.0,-1.2
2024/02/16 04:20:00,47.3,-1.2
2024/02/16 04:30:00,47.6,-1.3
2024/02/16 04:40:00,47.6,-1.1
2024/02/16 04:50:00,47.8,-1.3
2024/02/16 05:00:00,48.0,-1.4
2024/02/16 05:10:00,48.2,-1.5
2024/02/16 05:20:00,48.0,-1.0
2024/02/16 05:30:00,48.1,-1.4
2024/02/16 05:40:00,48.2,-1.4
2024/02/16 05:50:00,48.2,-1.4
2024/02/16 06:00:00,48.3,-1.4
2024/02/16 06:10:00,48.5,-1.4
2024/02/16 06:20:00,48.4,-1.5
2024/02/16 06:30:00,48.5,-1.3
2024/02/16 06:40:00,48.4,-1.4
2024/02/16 06:50:00,48.3,-1.6
2024/02/16 07:00:00,48.3,-1.4
2024/02/16 07:10:00,48.6,-2.4
2024/02/16 07:20:00,48.5,-1.7
2024/02/16 07:30:00,48.4,-1.6
2024/02/16 07:40:00,48.4,-1.4
2024/02/16 07:50:00,48.6,-1.3
2024/02/16 08:00:00,48.8,-1.5
2024/02/16 08:10:00,49.1,-1.7
2024/02/16 08:20:00,49.0,-1.1
2024/02/16 08:30:00,49.1,-1.5
2024/02/16 08:40:00,49.0,-1.3
2024/02/16 08:50:00,48.8,-1.5
2024/02/16 09:00:00,48.8,-1.3
2024/02/16 09:10:00,49.1,-1.6
2024/02/16 09:20:00,49.3,-1.2
2024/02/16 09:30:00,49.1,-1.1
2024/02/16 09:40:00,49.4,-1.0
2024/02/16 09:50:00,49.4,-1.0
2024/02/16 10:00:00,48.8,-1.1
2024/02/16 10:10:00,48.5,-0.8
2024/02/16 10:20:00,48.4,-0.6
2024/02/16 10:30:00,49.1,-1.1
2024/02/16 10:40:00,49.6,-1.4
2024/02/16 10:50:00,49.4,-0.8
2024/02/16 11:00:00,49.3,-0.6
2024/02/16 11:10:00,49.3,-0.4
2024/02/16 11:20:00,49.4,-0.8
2024/02/16 11:30:00,49.3,-0.7
2024/02/16 11:40:00,49.2,-0.7
2024/02/16 11:50:00,49.2,-0.7
2024/02/16 12:00:00,49.2,-0.6
2024/02/16 12:10:00,49.2,-0.6
2024/02/16 12:20:00,49.2,-0.9
2024/02/16 12:30:00,49.2,-0.8
2024/02/16 12:40:00,49.3,-0.8
2024/02/16 12:50:00,49.1,-0.6
2024/02/16 13:00:00,49.2,-0.6
2024/02/16 13:10:00,49.0,-0.9
2024/02/16 13:20:00,48.9,-0.6
2024/02/16 13:30:00,48.8,-0.5
2024/02/16 13:40:00,48.7,-0.0
2024/02/16 13:50:00,48.8,-0.2
2024/02/16 14:00:00,49.1,-0.8
2024/02/16 14:10:00,49.0,-1.0
2024/02/16 14:20:00,49.1,-1.1
2024/02/16 14:30:00,49.1,-1.2
2024/02/16 14:40:00,49.1,-0.9
2024/02/16 14:50:00,49.2,-1.2
2024/02/16 15:00:00,49.2,-1.3
2024/02/16 15:10:00,49.1,-1.4
2024/02/16 15:20:00,49.1,-1.3
2024/02/16 15:30:00,49.1,-1.2
2024/02/16 15:40:00,49.2,-1.4
2024/02/16 15:50:00,49.3,-1.5
2024/02/16 16:00:00,49.3,-1.4
2024/02/16 16:10:00,49.2,-1.5
2024/02/16 16:20:00,49.2,-1.6
2024/02/16 16:30:00,49.3,-1.4
2024/02/16 16:40:00,49.5,-1.7
2024/02/16 16:50:00,49.5,-1.8
2024/02/16 17:00:00,49.6,-1.7
2024/02/16 17:10:00,49.6,-1.8
2024/02/16 17:20:00,49.6,-1.8
2024/02/16 17:30:00,49.7,-2.1
2024/02/16 17:40:00,49.7,-1.9
2024/02/16 17:50:00,49.7,-2.2
2024/02/16 18:00:00,49.6,-1.9
2024/02/16 18:10:00,49.7,-2.3
2024/02/16 18:20:00,49.7,-2.3
2024/02/16 18:30:00,49.7,-2.3
2024/02/16 18:40:00,49.7,-2.4
2024/02/16 18:50:00,49.7,-2.2
2024/02/16 19:00:00,49.7,-2.3
2024/02/16 19:10:00,49.7,-2.2
2024/02/16 19:20:00,49.6,-2.5
2024/02/16 19:30:00,49.6,-2.2
2024/02/16 19:40:00,49.6,-2.6
2024/02/16 19:50:00,49.5,-2.2
2024/02/16 20:00:00,49.5,-2.4
2024/02/16 20:10:00,49.5,-2.5
2024/02/16 20:20:00,49.5,-2.3
2024/02/16 20:30:00,49.5,-2.5
2024/02/16 20:40:00,49.4,-2.2
2024/02/16 20:50:00,49.4,-2.4
2024/02/16 21:00:00,49.4,-2.4
2024/02/16 21:10:00,49.3,-2.4
2024/02/16 21:20:00,49.3,-2.1
2024/02/16 21:30:00,49.3,-2.5
2024/02/16 21:40:00,49.3,-2.6
2024/02/16 21:50:00,49.3,-2.8
2024/02/16 22:00:00,49.2,-2.7
2024/02/16 22:10:00,49.3,-3.1
2024/02/16 22:20:00,49.3,-3.2
2024/02/16 22:30:00,49.3,-3.4
2024/02/16 22:40:00,49.3,-3.4
2024/02/16 22:50:00,49.2,-3.6
2024/02/16 23:00:00,49.2,-4.0
2024/02/16 23:10:00,49.3,-3.9
2024/02/16 23:20:00,49.3,-3.8
2024/02/16 23:30:00,49.3,-4.1
2024/02/16 23:40:00,49.2,-4.2
2024/02/16 23:50:00,49.2,-4.4
